Temp
41 43 44 45 47 54 58 58 55 55 51 48 45 43 41 39 37 36 36 36 35 34 33 33 33 33 32 30 30 31 32 33
39 42 44 45 45 51 58 56 52 49 47 43 41 40 39 37 35 35 34 34 33 33 32 32 31 31 30 30 32 32 31 32
41 43 44 47 50 51 49 48 45 43 40 38 37 37 34 33 33 34 33 33 32 32 31 31 30 30 32 32 32 31 30 30
40 39 40 41 43 43 42 41 39 38 36 35 34 33 33 33 33 33 33 32 31 31 30 29 30 32 32 32 31 30 30 30
36 35 36 36 37 37 37 37 36 35 34 33 33 33 32 32 33 32 31 30 30 30 29 31 32 32 32 31 30 30 29 30
33 33 33 33 33 33 33 34 34 33 33 32 32 32 32 32 31 30 30 29 29 31 32 32 32 33 31 31 30 29 28 29
32 32 32 33 32 33 32 32 34 33 32 32 32 31 30 29 29 28 28 31 32 31 31 31 34 36 35 32 30 30 29 28
31 32 32 32 32 32 32 34 33 32 31 30 30 29 28 28 28 29 29 31 30 31 31 31 32 36 35 33 30 29 28 28
31 32 32 32 32 32 33 32 31 30 29 29 28 27 29 29 27 28 28 28 29 29 30 30 33 35 34 32 29 28 28 28
32 32 32 32 32 32 31 30 29 28 28 28 28 29 28 27 27 28 29 28 28 29 29 29 30 34 34 31 29 29 27 28
30 30 30 31 31 30 29 28 27 27 28 31 32 31 27 28 28 29 30 29 29 29 28 27 29 33 33 31 29 26 26 26
29 28 29 30 30 28 27 25 27 28 30 30 30 29 29 28 28 28 28 27 25 25 25 25 26 29 32 31 27 25 23 23
28 27 28 29 28 26 25 28 28 28 28 27 27 29 28 26 26 26 25 23 22 22 21 22 24 29 31 31 29 27 22 20
28 28 29 30 30 26 26 26 26 25 24 25 26 26 27 25 24 23 23 21 20 20 19 19 21 22 27 28 26 25 20 21
27 26 25 26 27 27 26 27 26 24 23 24 23 23 23 24 24 22 21 20 20 19 17 16 17 17 17 18 17 21 18 17
26 25 25 26 25 26 27 27 24 23 23 22 22 21 21 21 20 20 19 21 17 14 16 13 10 20 21 17 14 9 15 -1
25 25 25 25 24 24 25 25 23 21 21 21 20 20 22 22 22 30 28 28 27 25 19 16 25 26 25 24 23 23 21 -5
24 25 25 25 24 23 23 21 20 22 20 17 17 18 19 19 20 21 26 29 28 27 26 25 24 24 22 22 19 19 9 -12
26 26 26 26 25 24 23 20 18 16 15 17 17 14 12 12 11 17 15 10 9 20 20 22 22 21 21 20 8 -7 -7 -16
25 24 24 23 22 25 24 19 19 15 13 13 11 11 11 11 10 8 6 1 -2 -2 7 4 18 19 16 14 -10 -12 -11 -14
MSLP
1007.14 1006.49 1005.85 1005.26 1004.71 1004.22 1003.93 1004.40 1005.38 1006.32 1007.48 1008.85 1010.35 1011.80 1013.15 1014.64 1015.94 1017.46 1018.83 1020.02 1021.75 1022.55 1023.40 1024.17 1024.83 1025.23 1025.83 1026.15 1027.11 1027.32 1027.83 1028.01
1006.85 1006.18 1005.40 1004.52 1004.07 1003.78 1003.38 1004.26 1005.63 1006.97 1008.34 1009.69 1011.19 1012.45 1013.71 1014.97 1016.60 1017.86 1019.20 1020.56 1022.22 1023.12 1023.97 1024.44 1025.08 1025.85 1026.85 1027.29 1027.44 1028.07 1028.39 1028.64
1006.69 1005.86 1004.94 1003.53 1002.91 1002.99 1003.46 1004.66 1006.25 1007.67 1009.05 1010.66 1012.05 1013.49 1014.37 1015.54 1016.78 1018.65 1019.88 1021.18 1022.50 1023.49 1024.52 1025.35 1025.77 1026.81 1027.15 1027.48 1028.18 1028.39 1028.68 1028.88
1006.57 1005.98 1005.12 1004.20 1003.61 1003.83 1004.74 1005.80 1007.40 1008.79 1010.04 1011.67 1013.27 1014.41 1015.73 1016.22 1017.54 1019.10 1020.54 1022.16 1022.72 1023.87 1025.11 1025.57 1026.16 1026.89 1027.18 1027.65 1028.34 1028.73 1029.10 1029.43
1007.13 1006.74 1006.22 1005.75 1005.50 1005.71 1006.32 1007.01 1008.52 1009.85 1011.37 1012.59 1014.27 1015.51 1016.38 1017.94 1018.62 1019.48 1021.25 1023.23 1024.20 1024.45 1025.41 1025.98 1026.47 1027.01 1027.58 1028.18 1028.60 1029.05 1029.34 1029.79
1007.85 1007.50 1007.30 1007.26 1007.08 1007.58 1007.94 1008.58 1009.58 1010.76 1012.61 1013.76 1015.08 1016.17 1017.18 1019.13 1020.37 1021.19 1022.27 1023.80 1025.21 1024.99 1025.77 1026.05 1026.82 1027.57 1027.87 1028.37 1029.01 1029.57 1029.88 1030.18
1008.76 1008.48 1008.38 1008.57 1008.64 1009.13 1009.49 1010.00 1010.61 1012.34 1013.36 1014.68 1016.30 1017.28 1018.45 1020.05 1021.70 1021.98 1023.45 1024.40 1025.18 1025.40 1025.58 1026.04 1027.16 1027.79 1028.14 1028.75 1029.38 1029.68 1030.00 1030.49
1010.09 1009.91 1009.70 1009.83 1010.11 1009.85 1011.02 1011.30 1012.32 1013.65 1014.75 1016.38 1017.65 1018.54 1019.75 1021.12 1021.93 1023.13 1024.40 1025.07 1025.61 1025.99 1026.29 1026.67 1027.34 1028.13 1028.54 1028.90 1029.69 1029.96 1030.35 1030.63
1011.65 1011.45 1011.35 1011.25 1011.53 1011.95 1012.36 1012.67 1013.58 1015.20 1016.33 1017.88 1018.88 1019.88 1021.13 1022.22 1022.90 1024.31 1025.04 1026.07 1026.71 1026.75 1027.30 1027.58 1027.90 1028.42 1028.79 1029.45 1029.89 1030.31 1030.59 1030.72
1013.31 1013.20 1012.69 1012.86 1013.11 1013.25 1014.11 1014.41 1015.61 1017.05 1018.20 1019.50 1020.43 1020.96 1022.13 1022.96 1023.71 1024.69 1025.76 1026.71 1027.15 1027.81 1028.34 1028.29 1028.31 1028.52 1029.14 1029.63 1030.22 1030.38 1030.63 1030.85
1014.85 1014.81 1014.99 1015.10 1014.94 1015.19 1015.99 1016.83 1018.01 1019.04 1020.08 1020.70 1021.20 1021.95 1023.25 1023.72 1024.48 1025.32 1026.12 1027.08 1028.45 1028.88 1028.86 1028.54 1028.92 1028.99 1029.38 1029.73 1030.13 1030.61 1031.03 1031.27
1016.37 1016.53 1016.98 1016.82 1016.72 1017.49 1018.32 1019.20 1020.17 1020.94 1021.77 1022.09 1022.63 1022.94 1023.75 1024.46 1025.17 1026.23 1027.42 1028.36 1028.93 1028.98 1029.39 1029.44 1029.49 1029.60 1029.90 1030.35 1030.74 1030.93 1031.25 1031.60
1018.19 1018.65 1018.84 1018.83 1018.84 1019.84 1020.60 1021.50 1021.92 1022.38 1022.65 1023.10 1023.77 1024.49 1024.74 1025.67 1026.75 1027.60 1028.28 1028.61 1029.10 1029.80 1030.23 1030.34 1030.49 1030.17 1030.28 1030.51 1030.70 1031.02 1031.58 1031.91
1019.74 1019.94 1020.24 1020.55 1020.89 1021.41 1022.35 1022.50 1022.67 1023.20 1023.90 1024.39 1025.06 1025.56 1026.08 1026.68 1027.41 1028.00 1028.40 1029.05 1029.67 1030.28 1030.72 1031.02 1031.21 1031.48 1031.21 1031.21 1031.47 1031.65 1032.11 1032.16
1021.00 1021.34 1021.77 1022.04 1022.19 1022.51 1023.00 1023.43 1023.78 1024.28 1024.93 1025.60 1026.17 1026.84 1026.96 1027.35 1027.64 1028.01 1028.61 1029.05 1029.83 1030.68 1031.17 1031.59 1031.82 1031.98 1032.32 1032.24 1032.51 1032.25 1032.44 1032.61
1022.20 1022.62 1022.91 1023.11 1023.38 1023.67 1023.99 1024.24 1024.82 1025.46 1026.05 1026.63 1026.91 1027.31 1027.86 1028.18 1028.15 1028.30 1029.07 1029.36 1029.82 1030.56 1031.21 1031.83 1031.91 1031.83 1032.16 1032.48 1032.61 1032.92 1032.63 1033.79
1023.03 1023.27 1023.67 1023.85 1024.21 1024.49 1024.61 1024.82 1025.39 1026.18 1026.87 1027.51 1027.78 1028.21 1028.40 1028.50 1028.81 1029.18 1029.40 1029.46 1029.89 1030.53 1031.23 1031.74 1031.24 1031.59 1032.03 1032.15 1031.83 1031.81 1031.89 1033.69
1023.74 1023.90 1024.14 1024.30 1024.60 1025.06 1025.40 1025.63 1026.17 1026.75 1027.52 1028.17 1028.74 1029.23 1029.34 1029.55 1029.56 1029.42 1029.83 1029.88 1030.44 1030.95 1031.16 1031.39 1031.48 1031.96 1032.17 1032.04 1032.32 1032.26 1033.08 1034.32
1024.32 1024.60 1024.76 1025.01 1025.23 1025.31 1025.55 1026.18 1026.90 1027.53 1028.08 1028.66 1029.19 1029.63 1029.95 1030.30 1030.83 1030.81 1031.08 1031.63 1031.97 1032.11 1032.10 1031.69 1031.71 1031.95 1032.07 1032.33 1033.29 1033.59 1033.89 1034.35
1025.03 1025.35 1025.59 1025.86 1026.13 1026.20 1026.31 1026.80 1027.49 1028.00 1028.52 1028.85 1029.45 1029.98 1030.39 1030.81 1031.44 1032.28 1032.93 1033.21 1033.82 1033.80 1033.23 1033.34 1032.00 1032.06 1032.60 1033.12 1034.34 1035.16 1035.08 1034.58
Wind_Speed
14 12 9 12 10 13 18 18 17 16 15 13 15 15 17 16 16 17 15 16 13 13 12 10 9 10 10 9 6 7 5 5
17 14 14 15 13 13 17 14 15 14 13 15 14 16 16 16 16 16 17 16 13 12 11 11 11 10 8 7 7 8 8 6
15 15 14 9 12 10 14 15 14 14 16 16 16 15 18 18 19 18 17 15 14 13 12 10 10 7 8 9 7 8 7 7
9 7 6 6 9 12 14 16 16 16 18 18 16 17 16 20 19 18 18 14 15 14 11 10 8 9 9 9 8 7 7 6
5 5 7 8 11 13 15 16 18 18 18 19 18 17 18 15 18 18 17 14 11 11 10 9 10 9 9 9 8 7 6 6
5 5 8 10 13 13 16 18 19 22 19 20 19 21 19 18 17 16 16 13 10 12 11 10 9 6 9 8 8 7 6 6
7 8 10 11 14 13 16 18 20 19 24 19 19 19 19 18 16 17 13 12 12 11 12 11 7 15 15 10 6 6 6 5
10 9 10 11 11 17 16 20 21 21 21 19 18 19 17 17 16 14 12 11 11 10 11 11 10 16 15 13 6 6 5 4
10 11 12 13 15 16 17 19 21 20 20 18 18 18 15 15 15 13 11 10 9 10 10 10 9 15 14 12 6 5 4 4
13 13 14 14 15 18 18 20 20 19 18 16 15 16 15 15 14 11 11 10 9 8 8 9 8 13 12 8 4 6 4 4
14 15 14 13 16 18 17 18 17 15 15 13 13 14 14 14 13 10 11 11 8 9 7 8 8 12 11 7 4 5 4 4
15 15 13 13 16 17 16 16 14 13 11 12 12 14 12 12 11 11 11 10 9 10 7 7 6 8 12 11 5 4 3 3
13 13 12 13 15 15 15 10 11 12 13 12 10 9 10 12 10 10 9 10 9 8 6 5 5 9 11 10 9 8 4 3
10 12 12 11 11 14 9 10 12 13 12 12 11 10 9 9 9 8 8 7 6 6 6 5 5 5 10 9 9 7 3 2
10 11 11 10 11 11 9 9 11 13 11 9 10 8 7 6 5 7 6 6 6 6 6 4 2 3 2 3 2 3 2 2
9 9 9 8 9 8 8 10 11 10 9 8 7 8 7 6 5 5 3 5 6 4 5 4 2 3 5 4 3 2 2 1
8 8 7 8 7 6 6 8 10 10 7 5 6 5 6 7 8 14 14 16 15 13 7 2 6 6 3 4 6 5 6 4
7 7 7 7 8 6 5 6 6 9 8 5 5 5 6 6 8 10 10 15 14 12 10 8 6 5 3 6 6 8 6 2
7 6 6 6 6 5 7 7 6 6 7 5 4 4 4 4 3 5 7 4 2 5 5 6 4 3 4 6 6 4 4 0
6 6 6 6 4 3 5 7 8 6 5 5 4 4 5 5 5 4 4 2 2 2 2 5 5 5 6 6 3 2 4 3
Wind_Direction
308 296 281 278 271 263 190 186 170 165 153 149 140 134 133 130 128 122 117 111 108 103 100 96 94 84 84 97 106 102 88 92
302 295 290 275 259 253 192 165 144 141 135 130 127 127 123 120 117 116 113 109 106 106 106 106 97 102 103 111 101 96 95 84
296 299 285 270 231 169 136 132 127 124 119 115 116 118 117 117 116 116 108 108 110 106 103 108 107 117 117 104 104 109 107 100
309 324 354 37 77 103 113 110 110 112 111 109 110 114 113 112 112 117 108 110 110 113 120 119 124 109 103 108 105 102 95 87
349 18 37 57 81 95 98 103 105 104 107 108 107 106 108 99 106 102 104 106 106 114 112 116 108 108 108 108 106 99 97 96
14 60 66 77 82 89 95 100 107 107 102 108 109 107 101 102 101 97 103 111 124 114 111 106 105 117 116 110 106 109 103 88
30 60 77 85 93 89 96 98 102 100 104 103 103 102 105 105 107 107 113 114 117 115 114 111 112 121 118 113 123 111 103 111
31 57 77 84 96 98 105 106 101 103 101 101 105 102 102 111 112 110 112 116 114 108 103 102 109 118 120 115 97 102 109 114
41 60 69 84 87 102 95 95 98 97 97 101 104 105 113 105 106 112 106 105 107 103 104 105 112 117 109 111 108 106 103 101
51 56 68 76 86 88 92 92 91 93 96 103 113 116 114 114 109 106 113 112 100 99 109 105 99 111 112 111 115 107 93 87
59 55 55 66 81 79 81 85 88 95 103 109 107 106 109 115 113 111 101 100 109 103 87 88 96 105 113 107 97 87 72 62
56 52 45 59 75 73 76 76 84 94 99 93 97 104 104 102 97 100 106 112 107 96 83 84 77 90 86 80 75 80 86 89
60 55 45 56 75 79 79 84 92 95 91 88 85 94 94 95 99 105 113 105 102 102 86 60 55 80 78 73 67 89 100 70
66 65 54 61 75 89 89 93 91 87 86 82 81 79 90 110 112 109 105 114 115 109 99 78 60 49 65 78 77 70 75 91
68 63 66 63 73 79 85 96 99 97 89 87 96 99 85 88 103 114 122 112 112 119 112 106 95 92 81 77 69 65 100 44
84 79 77 78 78 85 99 106 99 98 100 100 89 90 92 80 87 83 54 130 129 111 128 130 104 147 158 176 216 207 157 151
86 88 86 88 82 71 75 101 110 104 99 98 103 93 98 103 101 100 105 106 116 128 136 211 126 106 73 26 21 8 15 45
112 106 104 103 96 82 74 85 92 117 114 98 104 129 125 116 122 124 110 113 120 128 122 114 107 93 52 28 18 10 35 63
112 111 117 106 107 104 110 100 94 97 104 128 136 130 117 113 111 123 131 132 83 91 103 101 92 70 33 17 27 2 358 276
100 100 109 110 89 98 116 123 137 135 141 141 130 119 119 115 97 99 113 137 160 329 21 24 38 37 24 30 101 250 295 286